CCA2450 ZSPD-ZGGG

Flight info

Callsign CCA2450
Flight time 2h 1m
Altitude 34100
Route K0895S1040 NXD81D NXD W131 AKDIM A470 DUBGO W134 ELNEX A599 PLT W19 OLPAB OLPAB1
Aircraft A339/H-SADE1E2E3GHIJ3J5M1P2RWXY/LB2D1

Departure

Time 2026-05-05 04:43
Airport Shanghai Pudong International Airport (ZSPD)

Arrival

Time 2026-05-05 06:44
Airport Guangzhou Baiyun International Airport (ZGGG)
Time Latitude Longitude Altitude Speed Heading
2026-05-05 04:17 31.15073 121.79684 26 ft 0 kts 71°
2026-05-05 04:28 31.15072 121.79683 26 ft 1 kts 71°
2026-05-05 04:28 31.15070 121.79674 32 ft 1 kts 71°
2026-05-05 04:28 31.15067 121.79666 32 ft 1 kts 71°
2026-05-05 04:28 31.15065 121.79658 32 ft 1 kts 71°
2026-05-05 04:29 31.15063 121.79649 28 ft 1 kts 62°
2026-05-05 04:29 31.15060 121.79641 32 ft 1 kts 51°
2026-05-05 04:29 31.15056 121.79633 32 ft 1 kts 37°
2026-05-05 04:29 31.15050 121.79627 32 ft 1 kts 23°
2026-05-05 04:30 31.15043 121.79622 29 ft 1 kts
2026-05-05 04:30 31.15035 121.79620 32 ft 1 kts
2026-05-05 04:30 31.15028 121.79619 32 ft 1 kts 354°
2026-05-05 04:30 31.15020 121.79620 31 ft 1 kts 347°
2026-05-05 04:31 31.15012 121.79622 32 ft 1 kts 341°
2026-05-05 04:31 31.15005 121.79624 32 ft 1 kts 334°
2026-05-05 04:31 31.15004 121.79624 32 ft 0 kts 334°
2026-05-05 04:33 31.15009 121.79622 32 ft 2 kts 334°
2026-05-05 04:34 31.15024 121.79611 32 ft 3 kts 327°
2026-05-05 04:34 31.15042 121.79593 32 ft 4 kts 319°
2026-05-05 04:34 31.15065 121.79570 32 ft 5 kts 320°
2026-05-05 04:34 31.15095 121.79546 29 ft 6 kts 326°
2026-05-05 04:35 31.15132 121.79517 30 ft 7 kts 326°
2026-05-05 04:35 31.15171 121.79480 30 ft 8 kts 316°
2026-05-05 04:35 31.15189 121.79423 30 ft 8 kts 274°
2026-05-05 04:35 31.15181 121.79359 27 ft 8 kts 258°
2026-05-05 04:36 31.15167 121.79292 29 ft 9 kts 256°
2026-05-05 04:36 31.15160 121.79221 30 ft 9 kts 275°
2026-05-05 04:36 31.15195 121.79162 32 ft 9 kts 322°
2026-05-05 04:36 31.15254 121.79132 30 ft 10 kts 339°
2026-05-05 04:37 31.15321 121.79106 28 ft 11 kts 342°
2026-05-05 04:37 31.15394 121.79079 27 ft 11 kts 342°
2026-05-05 04:37 31.15473 121.79049 31 ft 12 kts 342°
2026-05-05 04:37 31.15556 121.79018 28 ft 13 kts 342°
2026-05-05 04:38 31.15643 121.78986 30 ft 13 kts 342°
2026-05-05 04:38 31.15734 121.78952 30 ft 14 kts 342°
2026-05-05 04:38 31.15823 121.78920 28 ft 12 kts 342°
2026-05-05 04:38 31.15906 121.78889 31 ft 13 kts 342°
2026-05-05 04:39 31.15991 121.78858 26 ft 13 kts 342°
2026-05-05 04:39 31.16077 121.78826 25 ft 12 kts 342°
2026-05-05 04:39 31.16144 121.78779 26 ft 11 kts 298°
2026-05-05 04:39 31.16139 121.78731 26 ft 0 kts 252°
2026-05-05 04:40 31.16138 121.78728 26 ft 1 kts 252°
2026-05-05 04:40 31.16135 121.78717 26 ft 2 kts 252°
2026-05-05 04:40 31.16130 121.78700 26 ft 3 kts 252°
2026-05-05 04:41 31.16124 121.78677 26 ft 3 kts 252°
2026-05-05 04:41 31.16115 121.78645 26 ft 5 kts 252°
2026-05-05 04:41 31.16096 121.78621 31 ft 3 kts 205°
2026-05-05 04:41 31.16073 121.78622 30 ft 3 kts 173°
2026-05-05 04:42 31.16056 121.78630 30 ft 0 kts 161°
2026-05-05 04:42 31.16016 121.78646 30 ft 30 kts 161°
2026-05-05 04:42 31.15562 121.78821 28 ft 105 kts 162°
2026-05-05 04:42 31.14666 121.79157 34 ft 162 kts 162°
2026-05-05 04:43 31.13526 121.79576 424 ft 172 kts 163°
2026-05-05 04:43 31.12390 121.79998 1103 ft 169 kts 164°
2026-05-05 04:43 31.11261 121.80349 1797 ft 166 kts 169°
2026-05-05 04:43 31.10108 121.80688 2461 ft 180 kts 167°
2026-05-05 04:44 31.08869 121.81046 3192 ft 186 kts 171°
2026-05-05 04:44 31.07582 121.81365 3884 ft 191 kts 169°
2026-05-05 04:44 31.06267 121.81801 4539 ft 196 kts 163°
2026-05-05 04:44 31.05046 121.82431 5342 ft 192 kts 154°
2026-05-05 04:45 31.03734 121.83030 5693 ft 220 kts 165°
2026-05-05 04:45 31.02123 121.83399 5803 ft 251 kts 183°
2026-05-05 04:45 31.00367 121.82915 5951 ft 273 kts 210°
2026-05-05 04:45 30.98858 121.81450 6134 ft 291 kts 238°
2026-05-05 04:46 30.98071 121.79354 7063 ft 275 kts 258°
2026-05-05 04:46 30.97566 121.77211 7860 ft 275 kts 258°
2026-05-05 04:46 30.97042 121.75054 8542 ft 278 kts 256°
2026-05-05 04:46 30.96540 121.72907 9200 ft 280 kts 262°
2026-05-05 04:47 30.96440 121.70619 9912 ft 280 kts 277°
2026-05-05 04:47 30.96806 121.68418 10462 ft 285 kts 284°
2026-05-05 04:47 30.97278 121.66059 10632 ft 305 kts 284°
2026-05-05 04:47 30.97752 121.63600 10810 ft 324 kts 283°
2026-05-05 04:48 30.98234 121.60999 11311 ft 330 kts 283°
2026-05-05 04:48 30.98723 121.58342 11589 ft 345 kts 283°
2026-05-05 04:48 30.99241 121.55534 11715 ft 363 kts 283°
2026-05-05 04:48 30.99778 121.52596 11873 ft 379 kts 283°
2026-05-05 04:49 31.00333 121.49556 12345 ft 386 kts 282°
2026-05-05 04:49 31.00904 121.46407 12098 ft 411 kts 283°
2026-05-05 04:49 31.01518 121.43073 12177 ft 426 kts 283°
2026-05-05 04:49 31.02126 121.39838 13969 ft 397 kts 283°
2026-05-05 04:50 31.02722 121.36716 14749 ft 394 kts 283°
2026-05-05 04:50 31.03327 121.33606 15344 ft 395 kts 283°
2026-05-05 04:50 31.03949 121.30467 15907 ft 398 kts 283°
2026-05-05 04:50 31.04584 121.27318 16457 ft 398 kts 283°
2026-05-05 04:51 31.05154 121.24195 17216 ft 391 kts 281°
2026-05-05 04:51 31.05652 121.21073 17686 ft 394 kts 280°
2026-05-05 04:51 31.06159 121.17918 18130 ft 397 kts 281°
2026-05-05 04:51 31.06558 121.14734 18532 ft 399 kts 274°
2026-05-05 04:52 31.06519 121.11506 19045 ft 397 kts 265°
2026-05-05 04:52 31.06042 121.08327 19522 ft 398 kts 256°
2026-05-05 04:52 31.05255 121.05242 19976 ft 399 kts 255°
2026-05-05 04:52 31.04466 121.02131 20451 ft 399 kts 255°
2026-05-05 04:53 31.03693 120.99027 20945 ft 399 kts 255°
2026-05-05 04:53 31.02924 120.95919 21436 ft 399 kts 255°
2026-05-05 04:53 31.02163 120.92842 21899 ft 400 kts 255°
2026-05-05 04:53 31.01379 120.89684 22383 ft 400 kts 255°
2026-05-05 04:54 31.00612 120.86602 22850 ft 401 kts 255°
2026-05-05 04:54 30.99836 120.83488 23350 ft 401 kts 255°
2026-05-05 04:54 30.99059 120.80373 23742 ft 397 kts 255°
2026-05-05 04:54 30.98301 120.77346 23815 ft 379 kts 255°
2026-05-05 04:55 30.97580 120.74476 23906 ft 360 kts 255°
2026-05-05 04:55 30.96883 120.71692 23998 ft 360 kts 256°
2026-05-05 04:55 30.96176 120.68858 24044 ft 367 kts 255°
2026-05-05 04:55 30.95463 120.66010 24042 ft 364 kts 255°
2026-05-05 04:56 30.94755 120.63183 24041 ft 363 kts 255°
2026-05-05 04:56 30.94045 120.60355 24041 ft 364 kts 255°
2026-05-05 04:56 30.93334 120.57527 24042 ft 364 kts 255°
2026-05-05 04:56 30.92621 120.54698 24064 ft 365 kts 255°
2026-05-05 04:57 30.91903 120.51846 24363 ft 366 kts 255°
2026-05-05 04:57 30.91188 120.49008 24833 ft 365 kts 255°
2026-05-05 04:57 30.90416 120.46227 25199 ft 368 kts 249°
2026-05-05 04:57 30.89185 120.43600 25573 ft 373 kts 238°
2026-05-05 04:58 30.87458 120.41270 25976 ft 379 kts 228°
2026-05-05 04:58 30.85353 120.39376 26328 ft 386 kts 220°
2026-05-05 04:58 30.83170 120.37628 26707 ft 387 kts 220°
2026-05-05 04:58 30.80965 120.35835 27095 ft 387 kts 220°
2026-05-05 04:59 30.78761 120.34029 27478 ft 388 kts 221°
2026-05-05 04:59 30.76554 120.32214 27837 ft 389 kts 221°
2026-05-05 04:59 30.74345 120.30396 28190 ft 390 kts 220°
2026-05-05 04:59 30.72123 120.28568 28544 ft 391 kts 220°
2026-05-05 05:00 30.70617 120.27331 28776 ft 392 kts 220°
2026-05-05 05:00 30.67633 120.24881 29224 ft 394 kts 220°
2026-05-05 05:00 30.65420 120.23066 29536 ft 395 kts 220°
2026-05-05 05:00 30.63902 120.21821 29777 ft 396 kts 220°
2026-05-05 05:01 30.61644 120.19972 30095 ft 397 kts 220°
2026-05-05 05:01 30.58646 120.17517 30469 ft 400 kts 220°
2026-05-05 05:01 30.57113 120.16262 30646 ft 401 kts 220°
2026-05-05 05:01 30.54856 120.14416 30938 ft 402 kts 220°
2026-05-05 05:02 30.52562 120.12540 31232 ft 403 kts 220°
2026-05-05 05:02 30.50265 120.10663 31557 ft 404 kts 220°
2026-05-05 05:02 30.47967 120.08786 31825 ft 405 kts 220°
2026-05-05 05:02 30.45657 120.06900 32099 ft 407 kts 220°
2026-05-05 05:03 30.43320 120.05039 32341 ft 410 kts 218°
2026-05-05 05:03 30.40835 120.03352 32570 ft 414 kts 216°
2026-05-05 05:03 30.38320 120.01692 32774 ft 415 kts 216°
2026-05-05 05:03 30.35840 120.00046 32955 ft 417 kts 216°
2026-05-05 05:04 30.33322 119.98369 33122 ft 418 kts 216°
2026-05-05 05:04 30.30761 119.96663 33274 ft 420 kts 216°
2026-05-05 05:04 30.28259 119.94998 33414 ft 421 kts 216°
2026-05-05 05:04 30.25690 119.93290 33583 ft 421 kts 216°
2026-05-05 05:05 30.23186 119.91625 33783 ft 420 kts 216°
2026-05-05 05:05 30.20647 119.89940 33980 ft 420 kts 216°
2026-05-05 05:05 30.18121 119.88262 34113 ft 419 kts 216°
2026-05-05 05:06 30.13069 119.84910 34133 ft 417 kts 216°
2026-05-05 05:06 30.08016 119.81560 34134 ft 418 kts 216°
2026-05-05 05:07 30.02949 119.78195 34148 ft 420 kts 217°
2026-05-05 05:07 29.97950 119.74830 34143 ft 417 kts 217°
2026-05-05 05:08 29.92931 119.71448 34139 ft 420 kts 217°
2026-05-05 05:08 29.87896 119.68068 34139 ft 417 kts 217°
2026-05-05 05:09 29.83015 119.64533 34135 ft 413 kts 220°
2026-05-05 05:09 29.78265 119.60797 34134 ft 413 kts 220°
2026-05-05 05:10 29.73529 119.57091 34134 ft 415 kts 220°
2026-05-05 05:10 29.68755 119.53365 34129 ft 414 kts 220°
2026-05-05 05:11 29.64056 119.49555 34133 ft 412 kts 224°
2026-05-05 05:11 29.59994 119.45019 34133 ft 405 kts 232°
2026-05-05 05:12 29.56251 119.40193 34134 ft 405 kts 232°
2026-05-05 05:12 29.52471 119.35376 34133 ft 406 kts 232°
2026-05-05 05:13 29.48689 119.30563 34132 ft 406 kts 232°
2026-05-05 05:13 29.44901 119.25748 34135 ft 404 kts 232°
2026-05-05 05:14 29.41118 119.20939 34130 ft 408 kts 232°
2026-05-05 05:14 29.37299 119.16103 34130 ft 408 kts 232°
2026-05-05 05:15 29.33494 119.11282 34139 ft 409 kts 232°
2026-05-05 05:15 29.29694 119.06494 34129 ft 407 kts 232°
2026-05-05 05:16 29.25875 119.01682 34125 ft 408 kts 232°
2026-05-05 05:16 29.22053 118.96883 34120 ft 405 kts 232°
2026-05-05 05:17 29.18244 118.92092 34132 ft 407 kts 232°
2026-05-05 05:17 29.14412 118.87270 34127 ft 409 kts 232°
2026-05-05 05:18 29.10584 118.82469 34121 ft 409 kts 232°
2026-05-05 05:18 29.06753 118.77674 34122 ft 408 kts 232°
2026-05-05 05:19 29.02935 118.72898 34117 ft 407 kts 232°
2026-05-05 05:19 28.99126 118.68133 34117 ft 408 kts 232°
2026-05-05 05:20 28.95275 118.63327 34115 ft 408 kts 232°
2026-05-05 05:20 28.91477 118.58592 34114 ft 407 kts 232°
2026-05-05 05:21 28.87639 118.53813 34112 ft 407 kts 232°
2026-05-05 05:21 28.83802 118.49043 34106 ft 407 kts 232°
2026-05-05 05:22 28.79968 118.44291 34107 ft 408 kts 232°
2026-05-05 05:22 28.76127 118.39522 34107 ft 407 kts 232°
2026-05-05 05:23 28.72294 118.34766 34106 ft 407 kts 232°
2026-05-05 05:23 28.68457 118.30014 34108 ft 407 kts 232°
2026-05-05 05:24 28.64616 118.25263 34108 ft 408 kts 232°
2026-05-05 05:24 28.60796 118.20547 34107 ft 407 kts 232°
2026-05-05 05:25 28.56952 118.15805 34104 ft 408 kts 232°
2026-05-05 05:25 28.53099 118.11060 34100 ft 408 kts 232°
2026-05-05 05:26 28.49246 118.06315 34175 ft 410 kts 232°
2026-05-05 05:26 28.45322 118.01481 34092 ft 420 kts 232°
2026-05-05 05:27 28.41357 117.96617 34092 ft 419 kts 232°
2026-05-05 05:27 28.35309 117.89464 34091 ft 420 kts 231°
2026-05-05 05:28 28.31242 117.84682 34100 ft 421 kts 231°
2026-05-05 05:28 28.27184 117.79898 34101 ft 421 kts 231°
2026-05-05 05:29 28.23117 117.75105 34097 ft 420 kts 231°
2026-05-05 05:29 28.19070 117.70342 34095 ft 420 kts 231°
2026-05-05 05:30 28.15010 117.65572 34097 ft 420 kts 231°
2026-05-05 05:30 28.10972 117.60831 34094 ft 421 kts 231°
2026-05-05 05:31 28.06898 117.56054 34100 ft 422 kts 231°
2026-05-05 05:31 28.02818 117.51275 34102 ft 423 kts 231°
2026-05-05 05:32 27.98728 117.46495 34103 ft 420 kts 231°
2026-05-05 05:32 27.94694 117.41782 34106 ft 422 kts 231°
2026-05-05 05:33 27.90607 117.37010 34103 ft 422 kts 231°
2026-05-05 05:33 27.86550 117.32281 34107 ft 422 kts 231°
2026-05-05 05:34 27.82462 117.27514 34099 ft 422 kts 231°
2026-05-05 05:34 27.78370 117.22760 34103 ft 422 kts 231°
2026-05-05 05:35 27.74262 117.17989 34095 ft 424 kts 231°
2026-05-05 05:35 27.70150 117.13228 34093 ft 423 kts 231°
2026-05-05 05:36 27.66058 117.08477 34099 ft 422 kts 231°
2026-05-05 05:36 27.61992 117.03763 34095 ft 424 kts 231°
2026-05-05 05:37 27.57874 116.99001 34097 ft 423 kts 231°
2026-05-05 05:37 27.53777 116.94267 34106 ft 420 kts 231°
2026-05-05 05:38 27.49667 116.89506 34101 ft 424 kts 232°
2026-05-05 05:38 27.45595 116.84731 34089 ft 423 kts 232°
2026-05-05 05:39 27.41516 116.79949 34095 ft 424 kts 232°
2026-05-05 05:39 27.37430 116.75174 34087 ft 423 kts 232°
2026-05-05 05:40 27.33333 116.70398 34094 ft 424 kts 232°
2026-05-05 05:40 27.29242 116.65628 34095 ft 425 kts 232°
2026-05-05 05:41 27.25179 116.60900 34090 ft 424 kts 232°
2026-05-05 05:41 27.21059 116.56107 34093 ft 425 kts 232°
2026-05-05 05:42 27.17010 116.51268 34096 ft 424 kts 233°
2026-05-05 05:42 27.13010 116.46380 34096 ft 425 kts 233°
2026-05-05 05:43 27.09000 116.41511 34099 ft 425 kts 233°
2026-05-05 05:43 27.04973 116.36644 34098 ft 425 kts 233°
2026-05-05 05:44 27.00941 116.31779 34095 ft 425 kts 233°
2026-05-05 05:44 26.97599 116.27750 34094 ft 425 kts 233°
2026-05-05 05:45 26.92901 116.22089 34093 ft 426 kts 233°
2026-05-05 05:45 26.88873 116.17219 34098 ft 426 kts 234°
2026-05-05 05:46 26.85542 116.13149 34092 ft 426 kts 234°
2026-05-05 05:46 26.80839 116.07422 34100 ft 427 kts 234°
2026-05-05 05:47 26.77503 116.03368 34092 ft 426 kts 234°
2026-05-05 05:47 26.73489 115.98491 34094 ft 427 kts 234°
2026-05-05 05:48 26.69454 115.93600 34094 ft 426 kts 234°
2026-05-05 05:48 26.65418 115.88714 34093 ft 427 kts 234°
2026-05-05 05:49 26.61410 115.83865 34098 ft 428 kts 234°
2026-05-05 05:49 26.57373 115.78985 34111 ft 427 kts 234°
2026-05-05 05:50 26.53332 115.74110 34101 ft 428 kts 234°
2026-05-05 05:50 26.49272 115.69214 34093 ft 428 kts 234°
2026-05-05 05:51 26.45217 115.64331 34085 ft 428 kts 234°
2026-05-05 05:51 26.41165 115.59456 34088 ft 428 kts 234°
2026-05-05 05:52 26.37099 115.54575 34089 ft 428 kts 234°
2026-05-05 05:52 26.33068 115.49736 34086 ft 429 kts 234°
2026-05-05 05:53 26.29003 115.44862 34087 ft 429 kts 234°
2026-05-05 05:53 26.24935 115.39989 34084 ft 430 kts 234°
2026-05-05 05:54 26.20856 115.35107 34081 ft 430 kts 234°
2026-05-05 05:54 26.16770 115.30224 34079 ft 430 kts 234°
2026-05-05 05:55 26.12681 115.25343 34080 ft 431 kts 234°
2026-05-05 05:55 26.08589 115.20465 34081 ft 432 kts 234°
2026-05-05 05:56 26.04478 115.15568 34098 ft 433 kts 234°
2026-05-05 05:56 26.00380 115.10691 34103 ft 434 kts 234°
2026-05-05 05:57 25.96251 115.05785 34091 ft 433 kts 234°
2026-05-05 05:57 25.92138 115.00902 34089 ft 432 kts 234°
2026-05-05 05:58 25.88026 114.96017 34082 ft 433 kts 234°
2026-05-05 05:58 25.83855 114.91176 34078 ft 437 kts 229°
2026-05-05 05:59 25.78685 114.87394 34078 ft 457 kts 213°
2026-05-05 05:59 25.75650 114.86173 34081 ft 469 kts 204°
2026-05-05 05:59 25.72442 114.85378 34080 ft 473 kts 201°
2026-05-05 06:00 25.66067 114.83834 34095 ft 473 kts 201°
2026-05-05 06:00 25.59634 114.82241 34101 ft 473 kts 201°
2026-05-05 06:01 25.53209 114.80647 34102 ft 473 kts 201°
2026-05-05 06:01 25.46793 114.79057 34105 ft 472 kts 201°
2026-05-05 06:02 25.40389 114.77472 34098 ft 472 kts 201°
2026-05-05 06:02 25.33986 114.75890 34099 ft 472 kts 201°
2026-05-05 06:03 25.27581 114.74310 34101 ft 471 kts 201°
2026-05-05 06:03 25.21221 114.72742 34096 ft 471 kts 201°
2026-05-05 06:04 25.14787 114.71157 33967 ft 468 kts 201°
2026-05-05 06:04 25.11612 114.70375 33433 ft 468 kts 201°
2026-05-05 06:04 25.08475 114.69601 32706 ft 469 kts 201°
2026-05-05 06:05 25.05280 114.68812 31899 ft 471 kts 201°
2026-05-05 06:05 25.02079 114.68023 31056 ft 473 kts 200°
2026-05-05 06:05 24.98866 114.67235 30443 ft 471 kts 200°
2026-05-05 06:05 24.95687 114.66458 29925 ft 467 kts 200°
2026-05-05 06:06 24.92526 114.65685 29393 ft 462 kts 199°
2026-05-05 06:06 24.89408 114.64924 28869 ft 457 kts 200°
2026-05-05 06:06 24.86308 114.64166 28356 ft 452 kts 200°
2026-05-05 06:06 24.83243 114.63414 27803 ft 448 kts 200°
2026-05-05 06:07 24.80215 114.62669 27277 ft 444 kts 200°
2026-05-05 06:07 24.77214 114.61929 26745 ft 440 kts 200°
2026-05-05 06:07 24.74234 114.61197 26257 ft 436 kts 200°
2026-05-05 06:07 24.71339 114.60341 25729 ft 427 kts 206°
2026-05-05 06:08 24.68646 114.59181 25248 ft 417 kts 212°
2026-05-05 06:08 24.66097 114.57718 24741 ft 408 kts 217°
2026-05-05 06:08 24.63661 114.56141 24222 ft 405 kts 217°
2026-05-05 06:08 24.61233 114.54588 23732 ft 401 kts 217°
2026-05-05 06:09 24.58827 114.53063 23173 ft 398 kts 217°
2026-05-05 06:09 24.56436 114.51551 22627 ft 395 kts 216°
2026-05-05 06:09 24.54063 114.50055 22008 ft 392 kts 216°
2026-05-05 06:09 24.51700 114.48564 21377 ft 389 kts 216°
2026-05-05 06:10 24.49381 114.47105 20933 ft 383 kts 216°
2026-05-05 06:10 24.47074 114.45651 20393 ft 379 kts 216°
2026-05-05 06:10 24.44797 114.44216 19864 ft 374 kts 216°
2026-05-05 06:10 24.42556 114.42804 19577 ft 366 kts 216°
2026-05-05 06:11 24.40324 114.41396 19481 ft 375 kts 216°
2026-05-05 06:11 24.38051 114.39966 19376 ft 376 kts 215°
2026-05-05 06:11 24.35788 114.38550 19273 ft 373 kts 215°
2026-05-05 06:11 24.33539 114.37143 19181 ft 372 kts 215°
2026-05-05 06:12 24.31291 114.35734 19092 ft 372 kts 215°
2026-05-05 06:12 24.29047 114.34329 18966 ft 369 kts 215°
2026-05-05 06:12 24.26849 114.32950 18606 ft 367 kts 215°
2026-05-05 06:12 24.24645 114.31564 18116 ft 363 kts 215°
2026-05-05 06:13 24.22463 114.30194 17397 ft 362 kts 214°
2026-05-05 06:13 24.20277 114.28831 16742 ft 359 kts 214°
2026-05-05 06:13 24.18118 114.27485 16166 ft 356 kts 214°
2026-05-05 06:13 24.15974 114.26146 15547 ft 354 kts 214°
2026-05-05 06:14 24.13871 114.24835 15451 ft 347 kts 214°
2026-05-05 06:14 24.11742 114.23504 15356 ft 355 kts 214°
2026-05-05 06:14 24.09643 114.22096 15243 ft 354 kts 218°
2026-05-05 06:14 24.07726 114.20431 15140 ft 348 kts 225°
2026-05-05 06:15 24.06049 114.18549 15035 ft 345 kts 232°
2026-05-05 06:15 24.04500 114.16532 15028 ft 346 kts 232°
2026-05-05 06:15 24.02946 114.14532 15023 ft 346 kts 232°
2026-05-05 06:15 24.01375 114.12530 15023 ft 347 kts 232°
2026-05-05 06:16 23.99803 114.10535 15021 ft 346 kts 232°
2026-05-05 06:16 23.98233 114.08548 14798 ft 344 kts 232°
2026-05-05 06:16 23.96668 114.06568 14349 ft 343 kts 232°
2026-05-05 06:16 23.95121 114.04594 13857 ft 340 kts 232°
2026-05-05 06:17 23.93594 114.02628 13160 ft 339 kts 232°
2026-05-05 06:17 23.92076 114.00667 12560 ft 336 kts 232°
2026-05-05 06:17 23.90588 113.98743 12344 ft 327 kts 231°
2026-05-05 06:17 23.89097 113.96817 12242 ft 336 kts 231°
2026-05-05 06:18 23.87587 113.94868 12126 ft 335 kts 231°
2026-05-05 06:18 23.86097 113.92958 12036 ft 334 kts 231°
2026-05-05 06:18 23.84596 113.91018 12024 ft 334 kts 233°
2026-05-05 06:18 23.83318 113.88910 12025 ft 333 kts 242°
2026-05-05 06:19 23.82391 113.86600 12022 ft 333 kts 251°
2026-05-05 06:19 23.81776 113.84155 12022 ft 333 kts 255°
2026-05-05 06:19 23.81196 113.81698 12020 ft 334 kts 255°
2026-05-05 06:19 23.80602 113.79254 12025 ft 332 kts 255°
2026-05-05 06:20 23.80001 113.76818 12021 ft 333 kts 254°
2026-05-05 06:20 23.79394 113.74370 12018 ft 334 kts 254°
2026-05-05 06:20 23.78786 113.71928 12021 ft 332 kts 254°
2026-05-05 06:20 23.78180 113.69496 12011 ft 332 kts 254°
2026-05-05 06:21 23.77574 113.67056 12021 ft 334 kts 254°
2026-05-05 06:21 23.76960 113.64593 12024 ft 336 kts 254°
2026-05-05 06:21 23.76358 113.62171 12008 ft 334 kts 254°
2026-05-05 06:21 23.75753 113.59739 11964 ft 331 kts 254°
2026-05-05 06:22 23.75141 113.57287 11597 ft 331 kts 254°
2026-05-05 06:22 23.74537 113.54868 11097 ft 328 kts 254°
2026-05-05 06:22 23.73946 113.52497 10475 ft 327 kts 253°
2026-05-05 06:22 23.73364 113.50161 10282 ft 312 kts 253°
2026-05-05 06:23 23.72808 113.47938 10131 ft 295 kts 253°
2026-05-05 06:23 23.72281 113.45830 10001 ft 280 kts 253°
2026-05-05 06:23 23.71783 113.43834 9788 ft 267 kts 253°
2026-05-05 06:23 23.71293 113.41885 9263 ft 266 kts 253°
2026-05-05 06:24 23.70802 113.39946 8714 ft 265 kts 253°
2026-05-05 06:24 23.70311 113.38006 8182 ft 264 kts 253°
2026-05-05 06:24 23.69822 113.36072 7651 ft 264 kts 254°
2026-05-05 06:24 23.69336 113.34143 7148 ft 263 kts 254°
2026-05-05 06:25 23.68853 113.32226 6642 ft 261 kts 254°
2026-05-05 06:25 23.68375 113.30330 6350 ft 254 kts 255°
2026-05-05 06:25 23.67910 113.28475 6208 ft 252 kts 255°
2026-05-05 06:25 23.67450 113.26645 6089 ft 250 kts 255°
2026-05-05 06:26 23.66716 113.24935 6005 ft 251 kts 232°
2026-05-05 06:26 23.65350 113.23757 5995 ft 255 kts 206°
2026-05-05 06:26 23.63623 113.23264 5987 ft 259 kts 192°
2026-05-05 06:26 23.61870 113.22951 5998 ft 258 kts 192°
2026-05-05 06:27 23.60095 113.22628 5995 ft 258 kts 192°
2026-05-05 06:27 23.56581 113.21903 6002 ft 257 kts 194°
2026-05-05 06:27 23.54843 113.21516 5988 ft 254 kts 194°
2026-05-05 06:28 23.53099 113.21121 5996 ft 257 kts 194°
2026-05-05 06:28 23.51351 113.20721 5994 ft 257 kts 194°
2026-05-05 06:28 23.49607 113.20322 5997 ft 257 kts 194°
2026-05-05 06:28 23.47851 113.19924 5999 ft 257 kts 194°
2026-05-05 06:29 23.46107 113.19532 6002 ft 251 kts 194°
2026-05-05 06:29 23.44967 113.19279 5997 ft 245 kts 194°
2026-05-05 06:29 23.42744 113.18779 5999 ft 247 kts 194°
2026-05-05 06:29 23.41059 113.18398 5997 ft 247 kts 194°
2026-05-05 06:30 23.39377 113.18021 5999 ft 247 kts 194°
2026-05-05 06:30 23.38259 113.17774 6000 ft 247 kts 194°
2026-05-05 06:30 23.36573 113.17406 5980 ft 245 kts 194°
2026-05-05 06:30 23.34362 113.16924 5698 ft 243 kts 194°
2026-05-05 06:31 23.33236 113.16677 5629 ft 246 kts 194°
2026-05-05 06:31 23.31017 113.16189 5597 ft 245 kts 194°
2026-05-05 06:31 23.29904 113.15947 5594 ft 237 kts 194°
2026-05-05 06:31 23.28303 113.15598 5596 ft 234 kts 194°
2026-05-05 06:32 23.26696 113.15244 5599 ft 236 kts 194°
2026-05-05 06:32 23.25101 113.14894 5467 ft 233 kts 194°
2026-05-05 06:32 23.23520 113.14546 5173 ft 231 kts 194°
2026-05-05 06:32 23.21959 113.14204 5037 ft 224 kts 194°
2026-05-05 06:33 23.20445 113.13875 4995 ft 223 kts 193°
2026-05-05 06:33 23.18917 113.13541 4990 ft 224 kts 193°
2026-05-05 06:33 23.17378 113.13202 4992 ft 236 kts 193°
2026-05-05 06:33 23.15814 113.12857 4983 ft 224 kts 193°
2026-05-05 06:34 23.14341 113.12537 4978 ft 209 kts 193°
2026-05-05 06:34 23.12885 113.12219 4972 ft 215 kts 194°
2026-05-05 06:34 23.11436 113.11894 4899 ft 211 kts 194°
2026-05-05 06:34 23.10002 113.11567 4624 ft 211 kts 193°
2026-05-05 06:35 23.08564 113.11241 4360 ft 211 kts 193°
2026-05-05 06:35 23.07112 113.11102 4037 ft 210 kts 169°
2026-05-05 06:35 23.05866 113.11903 4001 ft 219 kts 131°
2026-05-05 06:35 23.05278 113.13413 3995 ft 221 kts 100°
2026-05-05 06:36 23.05150 113.15032 3963 ft 207 kts 93°
2026-05-05 06:36 23.05076 113.16538 3983 ft 198 kts 95°
2026-05-05 06:36 23.04917 113.18043 3963 ft 201 kts 99°
2026-05-05 06:36 23.04680 113.19521 3892 ft 197 kts 99°
2026-05-05 06:37 23.04883 113.20984 3573 ft 198 kts 65°
2026-05-05 06:37 23.05749 113.22088 3281 ft 195 kts 34°
2026-05-05 06:37 23.06972 113.22727 3109 ft 192 kts 17°
2026-05-05 06:37 23.08272 113.23101 3084 ft 189 kts 11°
2026-05-05 06:38 23.09525 113.23377 3087 ft 184 kts
2026-05-05 06:38 23.10776 113.23668 3084 ft 185 kts 12°
2026-05-05 06:38 23.12034 113.24016 3085 ft 184 kts 13°
2026-05-05 06:38 23.13257 113.24350 3088 ft 184 kts 13°
2026-05-05 06:39 23.14479 113.24681 3086 ft 180 kts 13°
2026-05-05 06:39 23.15708 113.25017 3085 ft 182 kts 13°
2026-05-05 06:39 23.16938 113.25350 3094 ft 181 kts 13°
2026-05-05 06:39 23.18158 113.25682 3093 ft 181 kts 13°
2026-05-05 06:40 23.19365 113.26010 3088 ft 174 kts 12°
2026-05-05 06:40 23.20541 113.26325 3091 ft 175 kts 12°
2026-05-05 06:40 23.21718 113.26645 3048 ft 175 kts 13°
2026-05-05 06:40 23.22904 113.26965 2849 ft 174 kts 13°
2026-05-05 06:41 23.24045 113.27275 2646 ft 169 kts 13°
2026-05-05 06:41 23.25208 113.27589 2425 ft 172 kts 14°
2026-05-05 06:41 23.26350 113.27900 2199 ft 168 kts 14°
2026-05-05 06:41 23.27486 113.28207 1978 ft 165 kts 14°
2026-05-05 06:42 23.28570 113.28501 1764 ft 161 kts 14°
2026-05-05 06:42 23.29663 113.28797 1542 ft 157 kts 14°
2026-05-05 06:42 23.30704 113.29078 1356 ft 159 kts 14°
2026-05-05 06:42 23.31769 113.29368 1129 ft 153 kts 14°
2026-05-05 06:43 23.32802 113.29647 934 ft 153 kts 14°
2026-05-05 06:43 23.33792 113.29916 727 ft 143 kts 14°
2026-05-05 06:43 23.34794 113.30188 528 ft 149 kts 14°
2026-05-05 06:43 23.35764 113.30450 323 ft 139 kts 14°
2026-05-05 06:44 23.36725 113.30711 143 ft 144 kts 14°
2026-05-05 06:44 23.37647 113.30961 57 ft 127 kts 14°
2026-05-05 06:44 23.38238 113.31122 56 ft 44 kts 14°
2026-05-05 06:44 23.38315 113.31143 54 ft 1 kts 14°
2026-05-05 06:45 23.38342 113.31151 54 ft 7 kts 14°
2026-05-05 06:45 23.38409 113.31170 54 ft 12 kts 14°
2026-05-05 06:45 23.38513 113.31189 55 ft 18 kts
2026-05-05 06:45 23.38637 113.31203 54 ft 17 kts
2026-05-05 06:46 23.38736 113.31186 56 ft 10 kts 344°
2026-05-05 06:46 23.38798 113.31167 52 ft 8 kts 344°
2026-05-05 06:46 23.38847 113.31152 56 ft 6 kts 344°
2026-05-05 06:46 23.38884 113.31140 55 ft 5 kts 344°
2026-05-05 06:47 23.38897 113.31127 55 ft 1 kts 309°
2026-05-05 06:47 23.38899 113.31125 53 ft 0 kts 308°
2026-05-05 06:47 23.38900 113.31123 53 ft 1 kts 306°
2026-05-05 06:47 23.38901 113.31114 54 ft 1 kts 286°
2026-05-05 06:48 23.38885 113.31094 53 ft 9 kts 224°
2026-05-05 06:48 23.38812 113.31011 53 ft 18 kts 252°
2026-05-05 06:48 23.38841 113.30937 52 ft 6 kts 323°
2026-05-05 06:48 23.38858 113.30925 59 ft 2 kts 325°
2026-05-05 06:49 23.38872 113.30914 52 ft 4 kts 325°
2026-05-05 06:49 23.38904 113.30891 55 ft 7 kts 327°
2026-05-05 06:49 23.38926 113.30846 59 ft 6 kts 271°
2026-05-05 06:49 23.38910 113.30800 55 ft 8 kts 246°
2026-05-05 06:50 23.38897 113.30727 55 ft 11 kts 278°
2026-05-05 06:50 23.38934 113.30638 58 ft 14 kts 292°
2026-05-05 06:50 23.38972 113.30534 56 ft 14 kts 283°
2026-05-05 06:50 23.38985 113.30447 59 ft 9 kts 280°
2026-05-05 06:51 23.38987 113.30438 57 ft 0 kts 280°
2026-05-05 06:52 23.38987 113.30436 57 ft 1 kts 280°
2026-05-05 06:52 23.38989 113.30428 60 ft 1 kts 280°
2026-05-05 06:52 23.38989 113.30424 60 ft 1 kts 280°
2026-05-05 06:52 23.38992 113.30407 58 ft 5 kts 280°
2026-05-05 06:53 23.39006 113.30365 57 ft 5 kts 301°
2026-05-05 06:53 23.39026 113.30354 53 ft 3 kts 330°
2026-05-05 06:53 23.39039 113.30351 56 ft 1 kts 343°
2026-05-05 06:53 23.39044 113.30350 56 ft 0 kts 346°
2026-05-05 06:54 23.39045 113.30350 56 ft 0 kts 346°
2026-05-05 06:54 23.39049 113.30349 56 ft 1 kts 348°
2026-05-05 06:54 23.39066 113.30351 52 ft 2 kts
2026-05-05 06:54 23.39076 113.30352 55 ft 0 kts
2026-05-05 06:55 23.39079 113.30353 55 ft 0 kts